Location: Brahman Valley
(40.6513°N, 111.8855°W)
Time: 09:19:18
(UTC+00:00)

Tiros 1 despin weight - Pass Details

Date: 15 May 2021
Orbit: 594 x 641 km, 48.2° (Epoch: 22 June)

Event Time Altitude Azimuth Distance (km) Brightness Sun altitude
Rises 03:22:21 0° 245° (WSW) 2,910 ? -8.3°
Reaches altitude 10° 03:24:39 10° 248° (WSW) 2,010 ? -8.6°
Maximum altitude 03:29:17 73° 332° (NNW) 668 ? -9.3°
Drops below altitude 10° 03:33:59 10° 58° (ENE) 2,032 ? -10.1°
Sets 03:36:20 0° 61° (ENE) 2,944 ? -10.4°
